Time,TemperatureF,DewpointF,PressureIn,WindDirection,WindDirectionDegrees,WindSpeedMPH,WindSpeedGustMPH,Humidity,HourlyPrecipIn,Conditions,Clouds,dailyrainin,SoftwareType,DateUTC
2013-09-19 00:01:00,76.1,69.1,29.90,WNW,292,0.0,0.0,79,0.00,,---,0.41,VWS V13.01,2013-09-19 04:01:00,
2013-09-19 00:06:00,76.1,69.1,29.90,WNW,292,0.0,0.0,79,0.00,,---,0.41,VWS V13.01,2013-09-19 04:06:00,
2013-09-19 00:08:00,75.9,69.3,29.90,WNW,292,0.0,0.0,80,0.00,,---,0.41,VWS V13.01,2013-09-19 04:08:00,
2013-09-19 00:13:00,75.9,69.3,29.90,WNW,292,0.0,0.0,80,0.00,,---,0.41,VWS V13.01,2013-09-19 04:13:00,
2013-09-19 00:18:00,75.9,69.7,29.90,WNW,292,0.0,0.0,81,0.00,,---,0.41,VWS V13.01,2013-09-19 04:18:00,
2013-09-19 00:23:00,75.9,69.7,29.90,WNW,292,0.0,0.0,81,0.00,,---,0.41,VWS V13.01,2013-09-19 04:23:00,
2013-09-19 00:28:00,75.9,69.7,29.90,WNW,292,0.0,0.0,81,0.00,,---,0.41,VWS V13.01,2013-09-19 04:28:00,
2013-09-19 00:33:00,75.9,69.3,29.90,WNW,292,0.0,0.0,80,0.00,,---,0.41,VWS V13.01,2013-09-19 04:33:00,
2013-09-19 00:38:00,75.9,69.7,29.90,WNW,292,0.0,0.0,81,0.00,,---,0.41,VWS V13.01,2013-09-19 04:38:00,
2013-09-19 00:43:00,76.1,69.5,29.90,WNW,292,0.0,0.0,80,0.00,,---,0.41,VWS V13.01,2013-09-19 04:43:00,
2013-09-19 00:48:00,76.1,69.5,29.89,WNW,292,0.0,0.0,80,0.00,,---,0.41,VWS V13.01,2013-09-19 04:48:00,
2013-09-19 00:53:00,76.1,70.2,29.89,WNW,292,0.0,0.0,82,0.00,,---,0.41,VWS V13.01,2013-09-19 04:53:00,
2013-09-19 00:58:00,76.1,69.8,29.89,WNW,292,0.0,0.0,81,0.00,,---,0.41,VWS V13.01,2013-09-19 04:58:00,
2013-09-19 01:03:00,76.1,70.2,29.89,WNW,292,0.0,0.0,82,0.00,,---,0.41,VWS V13.01,2013-09-19 05:03:00,
2013-09-19 01:08:00,76.1,70.2,29.89,WNW,292,0.0,0.0,82,0.00,,---,0.41,VWS V13.01,2013-09-19 05:08:00,
2013-09-19 01:13:00,76.1,70.2,29.89,WNW,292,0.0,0.0,82,0.00,,---,0.41,VWS V13.01,2013-09-19 05:13:00,
2013-09-19 01:18:00,76.1,70.2,29.89,WNW,292,0.0,0.0,82,0.00,,---,0.41,VWS V13.01,2013-09-19 05:18:00,
2013-09-19 01:23:00,75.9,70.0,29.89,WNW,292,0.0,0.0,82,0.00,,---,0.41,VWS V13.01,2013-09-19 05:23:00,
2013-09-19 01:28:00,76.1,70.2,29.89,WNW,292,0.0,0.0,82,0.00,,---,0.41,VWS V13.01,2013-09-19 05:28:00,
2013-09-19 01:33:00,75.9,70.0,29.88,WNW,292,0.0,0.0,82,0.00,,---,0.41,VWS V13.01,2013-09-19 05:33:00,
2013-09-19 01:38:00,76.1,70.2,29.88,WNW,292,0.0,0.0,82,0.00,,---,0.41,VWS V13.01,2013-09-19 05:38:00,
2013-09-19 01:43:00,75.9,70.0,29.88,WNW,292,0.0,0.0,82,0.00,,---,0.41,VWS V13.01,2013-09-19 05:43:00,
2013-09-19 01:48:00,75.9,70.0,29.88,WNW,292,0.0,0.0,82,0.00,,---,0.41,VWS V13.01,2013-09-19 05:48:00,
2013-09-19 01:53:00,75.9,70.0,29.88,WNW,292,0.0,0.0,82,0.00,,---,0.41,VWS V13.01,2013-09-19 05:53:00,
2013-09-19 01:58:00,75.9,70.0,29.88,WNW,292,0.0,0.0,82,0.00,,---,0.41,VWS V13.01,2013-09-19 05:58:00,
2013-09-19 02:03:00,75.7,69.9,29.87,WNW,292,0.0,0.0,82,0.00,,---,0.41,VWS V13.01,2013-09-19 06:03:00,
2013-09-19 02:08:00,75.9,70.4,29.88,WNW,292,0.0,0.0,83,0.00,,---,0.41,VWS V13.01,2013-09-19 06:08:00,
2013-09-19 02:13:00,75.7,70.2,29.87,WNW,292,0.0,0.0,83,0.00,,---,0.41,VWS V13.01,2013-09-19 06:13:00,
2013-09-19 02:18:00,75.6,70.0,29.87,WNW,292,0.0,0.0,83,0.00,,---,0.41,VWS V13.01,2013-09-19 06:18:00,
2013-09-19 02:23:00,75.6,70.0,29.87,WNW,292,0.0,0.0,83,0.00,,---,0.41,VWS V13.01,2013-09-19 06:23:00,
2013-09-19 02:28:00,75.6,70.0,29.87,WNW,292,0.0,0.0,83,0.00,,---,0.41,VWS V13.01,2013-09-19 06:28:00,
2013-09-19 02:33:00,75.4,69.9,29.87,WNW,292,0.0,0.0,83,0.00,,---,0.41,VWS V13.01,2013-09-19 06:33:00,
2013-09-19 02:38:00,75.4,69.9,29.87,WNW,292,0.0,0.0,83,0.00,,---,0.41,VWS V13.01,2013-09-19 06:38:00,
2013-09-19 02:43:00,75.4,69.9,29.86,WNW,292,0.0,0.0,83,0.00,,---,0.41,VWS V13.01,2013-09-19 06:43:00,
2013-09-19 02:48:00,75.4,69.9,29.86,WNW,292,0.0,0.0,83,0.00,,---,0.41,VWS V13.01,2013-09-19 06:48:00,
2013-09-19 02:53:00,75.2,69.7,29.86,WNW,292,0.0,0.0,83,0.00,,---,0.41,VWS V13.01,2013-09-19 06:53:00,
2013-09-19 02:58:00,75.4,70.2,29.86,WNW,292,0.0,0.0,84,0.00,,---,0.41,VWS V13.01,2013-09-19 06:58:00,
2013-09-19 03:03:00,75.4,70.2,29.86,WNW,292,0.0,0.0,84,0.00,,---,0.41,VWS V13.01,2013-09-19 07:03:00,
2013-09-19 03:08:00,75.4,70.2,29.86,WNW,292,0.0,0.0,84,0.00,,---,0.41,VWS V13.01,2013-09-19 07:08:00,
2013-09-19 03:13:00,75.4,70.2,29.86,WNW,292,0.0,0.0,84,0.00,,---,0.41,VWS V13.01,2013-09-19 07:13:00,
2013-09-19 03:18:00,75.2,70.0,29.86,WNW,292,0.0,0.0,84,0.00,,---,0.41,VWS V13.01,2013-09-19 07:18:00,
2013-09-19 03:23:00,75.2,70.0,29.86,WNW,292,0.0,0.0,84,0.00,,---,0.41,VWS V13.01,2013-09-19 07:23:00,
2013-09-19 03:28:00,75.4,70.2,29.86,WNW,292,0.0,0.0,84,0.00,,---,0.41,VWS V13.01,2013-09-19 07:28:00,
2013-09-19 03:33:00,75.0,69.9,29.86,WNW,292,0.0,0.0,84,0.00,,---,0.41,VWS V13.01,2013-09-19 07:33:00,
2013-09-19 03:38:00,75.2,70.0,29.85,WNW,292,0.0,0.0,84,0.00,,---,0.41,VWS V13.01,2013-09-19 07:38:00,
2013-09-19 03:43:00,75.0,69.9,29.85,WNW,292,0.0,0.0,84,0.00,,---,0.41,VWS V13.01,2013-09-19 07:43:00,
2013-09-19 03:48:00,75.0,69.9,29.85,WNW,292,0.0,0.0,84,0.00,,---,0.41,VWS V13.01,2013-09-19 07:48:00,
2013-09-19 03:53:00,75.0,69.9,29.85,WNW,292,0.0,0.0,84,0.00,,---,0.41,VWS V13.01,2013-09-19 07:53:00,
2013-09-19 03:58:00,75.0,69.9,29.85,WNW,292,0.0,0.0,84,0.00,,---,0.41,VWS V13.01,2013-09-19 07:58:00,
2013-09-19 04:03:00,75.0,69.9,29.85,WNW,292,0.0,0.0,84,0.00,,---,0.41,VWS V13.01,2013-09-19 08:03:00,
2013-09-19 04:08:00,75.0,69.9,29.85,WNW,292,0.0,0.0,84,0.00,,---,0.41,VWS V13.01,2013-09-19 08:08:00,
2013-09-19 04:13:00,74.8,69.7,29.84,WNW,292,0.0,0.0,84,0.00,,---,0.41,VWS V13.01,2013-09-19 08:13:00,
2013-09-19 04:18:00,74.8,69.7,29.84,WNW,292,0.0,0.0,84,0.00,,---,0.41,VWS V13.01,2013-09-19 08:18:00,
2013-09-19 04:23:00,74.8,69.7,29.84,WNW,292,0.0,0.0,84,0.00,,---,0.41,VWS V13.01,2013-09-19 08:23:00,
2013-09-19 04:28:00,74.8,70.0,29.84,WNW,292,0.0,0.0,85,0.00,,---,0.41,VWS V13.01,2013-09-19 08:28:00,
2013-09-19 04:33:00,74.8,70.0,29.83,WNW,292,0.0,0.0,85,0.00,,---,0.41,VWS V13.01,2013-09-19 08:33:00,
2013-09-19 04:38:00,74.8,70.0,29.83,WNW,292,0.0,0.0,85,0.00,,---,0.41,VWS V13.01,2013-09-19 08:38:00,
2013-09-19 04:43:00,74.8,70.0,29.83,WNW,292,0.0,0.0,85,0.00,,---,0.41,VWS V13.01,2013-09-19 08:43:00,
2013-09-19 04:48:00,74.8,70.0,29.83,WNW,292,0.0,0.0,85,0.00,,---,0.41,VWS V13.01,2013-09-19 08:48:00,
2013-09-19 04:53:00,74.8,70.0,29.83,WNW,292,0.0,0.0,85,0.00,,---,0.41,VWS V13.01,2013-09-19 08:53:00,
2013-09-19 04:58:00,74.8,70.0,29.83,WNW,292,0.0,0.0,85,0.00,,---,0.41,VWS V13.01,2013-09-19 08:58:00,
2013-09-19 05:03:00,74.8,70.0,29.83,WNW,292,0.0,0.0,85,0.00,,---,0.41,VWS V13.01,2013-09-19 09:03:00,
2013-09-19 05:08:00,75.0,70.2,29.83,WNW,292,0.0,0.0,85,0.00,,---,0.41,VWS V13.01,2013-09-19 09:08:00,
2013-09-19 05:13:00,75.0,70.2,29.84,WNW,292,0.0,0.0,85,0.00,,---,0.41,VWS V13.01,2013-09-19 09:13:00,
2013-09-19 05:18:00,75.0,70.2,29.83,WNW,292,0.0,0.0,85,0.00,,---,0.41,VWS V13.01,2013-09-19 09:18:00,
2013-09-19 05:23:00,74.8,70.0,29.83,WNW,292,0.0,0.0,85,0.00,,---,0.41,VWS V13.01,2013-09-19 09:23:00,
2013-09-19 05:28:00,74.8,70.0,29.83,WNW,292,0.0,0.0,85,0.00,,---,0.41,VWS V13.01,2013-09-19 09:28:00,
2013-09-19 05:33:00,74.8,70.0,29.83,WNW,292,0.0,0.0,85,0.00,,---,0.41,VWS V13.01,2013-09-19 09:33:00,
2013-09-19 05:38:00,75.0,70.2,29.84,WNW,292,0.0,0.0,85,0.00,,---,0.41,VWS V13.01,2013-09-19 09:38:00,
2013-09-19 05:43:00,74.8,70.0,29.84,WNW,292,0.0,0.0,85,0.00,,---,0.41,VWS V13.01,2013-09-19 09:43:00,
2013-09-19 05:48:00,74.8,70.0,29.84,WNW,292,0.0,0.0,85,0.00,,---,0.41,VWS V13.01,2013-09-19 09:48:00,
2013-09-19 05:53:00,74.8,70.0,29.85,WNW,292,0.0,0.0,85,0.00,,---,0.41,VWS V13.01,2013-09-19 09:53:00,
2013-09-19 05:58:00,74.8,70.0,29.85,WNW,292,0.0,0.0,85,0.00,,---,0.41,VWS V13.01,2013-09-19 09:58:00,
2013-09-19 06:03:00,74.8,70.0,29.85,WNW,292,0.0,0.0,85,0.00,,---,0.41,VWS V13.01,2013-09-19 10:03:00,
2013-09-19 06:08:00,74.8,70.0,29.85,WNW,292,0.0,0.0,85,0.00,,---,0.41,VWS V13.01,2013-09-19 10:08:00,
2013-09-19 06:13:00,74.8,70.0,29.85,WNW,292,0.0,0.0,85,0.00,,---,0.41,VWS V13.01,2013-09-19 10:13:00,
2013-09-19 06:18:00,74.8,70.0,29.85,WNW,292,0.0,0.0,85,0.00,,---,0.41,VWS V13.01,2013-09-19 10:18:00,
2013-09-19 06:23:00,74.8,70.0,29.85,WNW,292,0.0,0.0,85,0.00,,---,0.41,VWS V13.01,2013-09-19 10:23:00,
2013-09-19 06:28:00,74.8,70.0,29.85,WNW,292,0.0,0.0,85,0.00,,---,0.41,VWS V13.01,2013-09-19 10:28:00,
2013-09-19 06:33:00,74.8,70.0,29.86,WNW,292,0.0,0.0,85,0.00,,---,0.41,VWS V13.01,2013-09-19 10:33:00,
2013-09-19 06:38:00,74.8,70.0,29.86,WNW,292,0.0,0.0,85,0.00,,---,0.41,VWS V13.01,2013-09-19 10:38:00,
2013-09-19 06:43:00,74.8,70.0,29.86,WNW,292,0.0,0.0,85,0.00,,---,0.41,VWS V13.01,2013-09-19 10:43:00,
2013-09-19 06:48:00,74.8,70.4,29.86,WNW,292,0.0,0.0,86,0.00,,---,0.41,VWS V13.01,2013-09-19 10:48:00,
2013-09-19 06:53:00,74.8,70.4,29.86,WNW,292,0.0,0.0,86,0.00,,---,0.41,VWS V13.01,2013-09-19 10:53:00,
2013-09-19 06:58:00,74.8,70.4,29.86,WNW,292,0.0,0.0,86,0.00,,---,0.41,VWS V13.01,2013-09-19 10:58:00,
2013-09-19 07:03:00,74.8,70.4,29.86,WNW,292,0.0,0.0,86,0.00,,---,0.22,VWS V13.01,2013-09-19 11:03:00,
2013-09-19 07:08:00,74.8,70.4,29.86,WNW,292,0.0,0.0,86,0.00,,---,0.22,VWS V13.01,2013-09-19 11:08:00,
2013-09-19 07:13:00,74.8,70.4,29.86,WNW,292,0.0,0.0,86,0.00,,---,0.22,VWS V13.01,2013-09-19 11:13:00,
2013-09-19 07:18:00,74.8,70.4,29.87,WNW,292,0.0,0.0,86,0.00,,---,0.22,VWS V13.01,2013-09-19 11:18:00,
2013-09-19 07:23:00,74.8,70.4,29.87,South,180,0.0,0.0,86,0.00,,---,0.22,VWS V13.01,2013-09-19 11:23:00,
2013-09-19 07:28:00,75.2,70.7,29.87,East,90,0.0,0.0,86,0.00,,---,0.22,VWS V13.01,2013-09-19 11:28:00,
2013-09-19 07:33:00,75.4,70.9,29.87,East,90,0.0,0.0,86,0.00,,---,0.22,VWS V13.01,2013-09-19 11:33:00,
2013-09-19 07:38:00,75.4,71.2,29.87,East,90,0.0,0.0,87,0.00,,---,0.22,VWS V13.01,2013-09-19 11:38:00,
2013-09-19 07:43:00,75.7,71.6,29.87,East,90,0.0,0.0,87,0.00,,---,0.22,VWS V13.01,2013-09-19 11:43:00,
2013-09-19 07:48:00,75.9,71.8,29.87,South,180,0.0,0.0,87,0.00,,---,0.22,VWS V13.01,2013-09-19 11:48:00,
2013-09-19 07:53:00,75.9,71.4,29.87,South,180,0.0,0.0,86,0.00,,---,0.22,VWS V13.01,2013-09-19 11:53:00,
2013-09-19 07:58:00,76.3,71.8,29.87,SSE,158,0.0,0.0,86,0.00,,---,0.22,VWS V13.01,2013-09-19 11:58:00,
2013-09-19 08:03:00,76.5,72.3,29.87,SSE,158,0.0,0.0,87,0.00,,---,0.16,VWS V13.01,2013-09-19 12:03:00,
2013-09-19 08:08:00,76.6,72.5,29.87,SSE,158,0.0,0.0,87,0.00,,---,0.16,VWS V13.01,2013-09-19 12:08:00,
2013-09-19 08:13:00,77.2,73.0,29.87,South,180,0.0,0.0,87,0.00,,---,0.16,VWS V13.01,2013-09-19 12:13:00,
2013-09-19 08:18:00,77.4,73.2,29.88,South,180,0.0,0.0,87,0.00,,---,0.16,VWS V13.01,2013-09-19 12:18:00,
2013-09-19 08:23:00,77.7,73.6,29.88,South,180,0.0,0.0,87,0.00,,---,0.16,VWS V13.01,2013-09-19 12:23:00,
2013-09-19 08:28:00,78.1,73.6,29.88,South,180,0.0,0.0,86,0.00,,---,0.16,VWS V13.01,2013-09-19 12:28:00,
2013-09-19 08:33:00,78.4,73.9,29.88,South,180,0.0,0.0,86,0.00,,---,0.16,VWS V13.01,2013-09-19 12:33:00,
2013-09-19 08:38:00,78.6,74.1,29.88,South,180,0.0,0.0,86,0.00,,---,0.16,VWS V13.01,2013-09-19 12:38:00,
2013-09-19 08:43:00,79.0,74.4,29.89,South,180,0.0,0.0,86,0.00,,---,0.16,VWS V13.01,2013-09-19 12:43:00,
2013-09-19 08:48:00,79.7,74.8,29.89,South,180,0.0,0.0,85,0.00,,---,0.16,VWS V13.01,2013-09-19 12:48:00,
2013-09-19 08:53:00,80.1,75.2,29.89,South,180,0.0,0.0,85,0.00,,---,0.16,VWS V13.01,2013-09-19 12:53:00,
2013-09-19 08:58:00,81.0,75.7,29.89,South,180,0.0,0.0,84,0.00,,---,0.16,VWS V13.01,2013-09-19 12:58:00,
2013-09-19 09:03:00,81.3,76.0,29.89,SSE,158,0.0,0.0,84,0.00,,---,0.16,VWS V13.01,2013-09-19 13:03:00,
2013-09-19 09:08:00,81.9,76.2,29.89,South,180,0.0,0.0,83,0.00,,---,0.16,VWS V13.01,2013-09-19 13:08:00,
2013-09-19 09:13:00,82.6,76.5,29.89,SSE,158,0.0,0.0,82,0.00,,---,0.16,VWS V13.01,2013-09-19 13:13:00,
2013-09-19 09:17:00,83.1,76.7,29.89,SSE,158,0.0,0.0,81,0.00,,---,0.16,VWS V13.01,2013-09-19 13:17:00,
2013-09-19 09:22:00,83.5,76.3,29.89,SSE,158,0.0,0.0,79,0.00,,---,0.16,VWS V13.01,2013-09-19 13:22:00,
2013-09-19 09:27:00,83.8,75.9,29.89,NNE,22,0.0,0.0,77,0.00,,---,0.16,VWS V13.01,2013-09-19 13:27:00,
2013-09-19 09:32:00,84.4,75.6,29.90,SSW,202,0.0,0.0,75,0.00,,---,0.16,VWS V13.01,2013-09-19 13:32:00,
2013-09-19 09:37:00,84.9,75.7,29.90,SSW,202,0.0,0.0,74,0.00,,---,0.16,VWS V13.01,2013-09-19 13:37:00,
2013-09-19 09:42:00,84.9,74.5,29.90,SSW,202,0.0,0.0,71,0.00,,---,0.16,VWS V13.01,2013-09-19 13:42:00,
2013-09-19 09:47:00,84.9,74.1,29.90,SSW,202,0.0,0.0,70,0.00,,---,0.16,VWS V13.01,2013-09-19 13:47:00,
2013-09-19 09:53:00,84.4,73.1,29.90,ENE,68,0.0,0.0,69,0.00,,---,0.16,VWS V13.01,2013-09-19 13:53:00,
2013-09-19 09:58:00,84.2,72.9,29.90,ENE,68,0.0,0.0,69,0.00,,---,0.16,VWS V13.01,2013-09-19 13:58:00,
2013-09-19 10:03:00,83.8,72.6,29.90,ENE,68,0.0,0.0,69,0.00,,---,0.16,VWS V13.01,2013-09-19 14:03:00,
2013-09-19 10:08:00,84.4,73.5,29.90,ENE,68,0.0,0.0,70,0.00,,---,0.16,VWS V13.01,2013-09-19 14:08:00,
2013-09-19 10:13:00,85.5,74.1,29.90,ENE,68,0.0,0.0,69,0.00,,---,0.16,VWS V13.01,2013-09-19 14:13:00,
2013-09-19 10:18:00,86.2,74.4,29.90,ENE,68,0.0,0.0,68,0.00,,---,0.16,VWS V13.01,2013-09-19 14:18:00,
2013-09-19 10:23:00,86.9,72.8,29.90,ENE,68,0.0,0.0,63,0.00,,---,0.16,VWS V13.01,2013-09-19 14:23:00,
2013-09-19 10:28:00,87.1,71.0,29.91,ENE,68,0.0,0.0,59,0.00,,---,0.16,VWS V13.01,2013-09-19 14:28:00,
2013-09-19 10:33:00,87.1,70.5,29.91,ENE,68,0.0,0.0,58,0.00,,---,0.16,VWS V13.01,2013-09-19 14:33:00,
2013-09-19 10:38:00,87.3,70.7,29.91,East,90,0.0,0.0,58,0.00,,---,0.16,VWS V13.01,2013-09-19 14:38:00,
2013-09-19 10:43:00,87.4,70.3,29.91,East,90,0.0,0.0,57,0.00,,---,0.16,VWS V13.01,2013-09-19 14:43:00,
2013-09-19 10:48:00,87.3,70.2,29.91,ENE,68,0.0,0.0,57,0.00,,---,0.16,VWS V13.01,2013-09-19 14:48:00,
2013-09-19 10:53:00,87.3,70.7,29.91,ENE,68,0.0,0.0,58,0.00,,---,0.16,VWS V13.01,2013-09-19 14:53:00,
2013-09-19 10:58:00,86.9,69.8,29.91,NE,45,0.0,0.0,57,0.00,,---,0.16,VWS V13.01,2013-09-19 14:58:00,
2013-09-19 11:03:00,86.9,70.4,29.91,East,90,0.0,0.0,58,0.00,,---,0.16,VWS V13.01,2013-09-19 15:03:00,
2013-09-19 11:08:00,87.3,71.2,29.91,NE,45,0.0,0.0,59,0.00,,---,0.16,VWS V13.01,2013-09-19 15:08:00,
2013-09-19 11:13:00,87.6,71.0,29.91,ESE,112,0.0,0.0,58,0.00,,---,0.16,VWS V13.01,2013-09-19 15:13:00,
2013-09-19 11:18:00,87.6,70.5,29.91,NE,45,0.0,0.0,57,0.00,,---,0.16,VWS V13.01,2013-09-19 15:18:00,
2013-09-19 11:23:00,86.7,70.2,29.91,ENE,68,0.0,0.0,58,0.00,,---,0.16,VWS V13.01,2013-09-19 15:23:00,
2013-09-19 11:28:00,85.6,70.2,29.92,East,90,0.0,0.0,60,0.00,,---,0.16,VWS V13.01,2013-09-19 15:28:00,
2013-09-19 11:33:00,85.5,70.5,29.92,East,90,0.0,0.0,61,0.00,,---,0.16,VWS V13.01,2013-09-19 15:33:00,
2013-09-19 11:38:00,85.6,71.1,29.91,ESE,112,0.0,0.0,62,0.00,,---,0.16,VWS V13.01,2013-09-19 15:38:00,
2013-09-19 11:43:00,85.6,71.6,29.91,ENE,68,0.0,0.0,63,0.00,,---,0.16,VWS V13.01,2013-09-19 15:43:00,
2013-09-19 11:48:00,86.4,72.3,29.91,East,90,0.0,0.0,63,0.00,,---,0.16,VWS V13.01,2013-09-19 15:48:00,
2013-09-19 11:53:00,87.1,71.5,29.91,ENE,68,0.0,0.0,60,0.00,,---,0.16,VWS V13.01,2013-09-19 15:53:00,
2013-09-19 11:58:00,88.0,70.3,29.91,East,90,0.0,0.0,56,0.00,,---,0.16,VWS V13.01,2013-09-19 15:58:00,
2013-09-19 12:03:00,88.5,70.8,29.91,NE,45,0.0,0.0,56,0.00,,---,0.16,VWS V13.01,2013-09-19 16:03:00,
2013-09-19 12:08:00,88.5,69.8,29.91,East,90,0.0,0.0,54,0.00,,---,0.16,VWS V13.01,2013-09-19 16:08:00,
2013-09-19 12:13:00,88.5,69.2,29.91,ESE,112,0.0,0.0,53,0.00,,---,0.16,VWS V13.01,2013-09-19 16:13:00,
2013-09-19 12:18:00,89.1,70.3,29.90,ESE,112,0.0,0.0,54,0.00,,---,0.16,VWS V13.01,2013-09-19 16:18:00,
2013-09-19 12:23:00,89.4,69.5,29.90,NE,45,0.0,0.0,52,0.00,,---,0.16,VWS V13.01,2013-09-19 16:23:00,
2013-09-19 12:28:00,89.4,68.3,29.90,ESE,112,0.0,0.0,50,0.00,,---,0.16,VWS V13.01,2013-09-19 16:28:00,
2013-09-19 12:33:00,89.4,67.8,29.90,East,90,0.0,0.0,49,0.00,,---,0.16,VWS V13.01,2013-09-19 16:33:00,
2013-09-19 12:38:00,89.4,68.3,29.90,ENE,68,0.0,0.0,50,0.00,,---,0.16,VWS V13.01,2013-09-19 16:38:00,
2013-09-19 12:43:00,89.4,68.9,29.89,NE,45,0.0,0.0,51,0.00,,---,0.16,VWS V13.01,2013-09-19 16:43:00,
2013-09-19 12:48:00,89.6,68.5,29.90,ESE,112,0.0,0.0,50,0.00,,---,0.16,VWS V13.01,2013-09-19 16:48:00,
2013-09-19 12:53:00,89.6,68.5,29.90,ENE,68,0.0,0.0,50,0.00,,---,0.16,VWS V13.01,2013-09-19 16:53:00,
2013-09-19 12:58:00,89.4,68.3,29.89,ENE,68,0.0,0.0,50,0.00,,---,0.16,VWS V13.01,2013-09-19 16:58:00,
2013-09-19 13:03:00,89.4,68.3,29.89,ENE,68,0.0,0.0,50,0.00,,---,0.16,VWS V13.01,2013-09-19 17:03:00,
2013-09-19 13:08:00,89.1,68.0,29.89,SE,135,0.0,0.0,50,0.00,,---,0.16,VWS V13.01,2013-09-19 17:08:00,
2013-09-19 13:13:00,89.1,68.0,29.89,ESE,112,0.0,0.0,50,0.00,,---,0.16,VWS V13.01,2013-09-19 17:13:00,
2013-09-19 13:18:00,89.6,69.7,29.88,SE,135,0.0,0.0,52,0.00,,---,0.16,VWS V13.01,2013-09-19 17:18:00,
2013-09-19 13:23:00,90.5,69.9,29.88,East,90,0.0,0.0,51,0.00,,---,0.16,VWS V13.01,2013-09-19 17:23:00,
2013-09-19 13:28:00,91.0,70.4,29.88,SE,135,0.0,0.0,51,0.00,,---,0.16,VWS V13.01,2013-09-19 17:28:00,
2013-09-19 13:33:00,91.2,70.6,29.88,East,90,0.0,0.0,51,0.00,,---,0.16,VWS V13.01,2013-09-19 17:33:00,
2013-09-19 13:38:00,90.9,68.5,29.88,ESE,112,0.0,0.0,48,0.00,,---,0.16,VWS V13.01,2013-09-19 17:38:00,
2013-09-19 13:43:00,90.9,69.1,29.88,ENE,68,0.0,0.0,49,0.00,,---,0.16,VWS V13.01,2013-09-19 17:43:00,
2013-09-19 13:48:00,90.9,69.1,29.87,East,90,0.0,0.0,49,0.00,,---,0.16,VWS V13.01,2013-09-19 17:48:00,
2013-09-19 13:53:00,91.0,68.6,29.87,SE,135,0.0,0.0,48,0.00,,---,0.16,VWS V13.01,2013-09-19 17:53:00,
2013-09-19 13:58:00,91.0,68.0,29.87,ENE,68,0.0,0.0,47,0.00,,---,0.16,VWS V13.01,2013-09-19 17:58:00,
2013-09-19 14:03:00,90.9,67.9,29.87,ENE,68,0.0,0.0,47,0.00,,---,0.16,VWS V13.01,2013-09-19 18:03:00,
2013-09-19 14:08:00,90.9,69.1,29.87,SE,135,0.0,0.0,49,0.00,,---,0.16,VWS V13.01,2013-09-19 18:08:00,
2013-09-19 14:13:00,90.5,68.8,29.87,ENE,68,0.0,0.0,49,0.00,,---,0.16,VWS V13.01,2013-09-19 18:13:00,
2013-09-19 14:18:00,90.9,68.5,29.87,ENE,68,0.0,0.0,48,0.00,,---,0.16,VWS V13.01,2013-09-19 18:18:00,
2013-09-19 14:23:00,90.5,68.8,29.87,ESE,112,0.0,0.0,49,0.00,,---,0.16,VWS V13.01,2013-09-19 18:23:00,
2013-09-19 14:28:00,90.3,68.6,29.87,ESE,112,0.0,0.0,49,0.00,,---,0.16,VWS V13.01,2013-09-19 18:28:00,
2013-09-19 14:33:00,89.4,67.2,29.86,ENE,68,0.0,0.0,48,0.00,,---,0.16,VWS V13.01,2013-09-19 18:33:00,
2013-09-19 14:38:00,88.5,66.9,29.87,East,90,0.0,0.0,49,0.00,,---,0.16,VWS V13.01,2013-09-19 18:38:00,
2013-09-19 14:43:00,88.3,67.9,29.86,SE,135,0.0,0.0,51,0.00,,---,0.16,VWS V13.01,2013-09-19 18:43:00,
2013-09-19 14:48:00,88.3,68.5,29.86,ESE,112,0.0,0.0,52,0.00,,---,0.16,VWS V13.01,2013-09-19 18:48:00,
2013-09-19 14:53:00,88.2,68.9,29.86,ENE,68,0.0,0.0,53,0.00,,---,0.16,VWS V13.01,2013-09-19 18:53:00,
2013-09-19 14:58:00,87.8,69.1,29.86,ENE,68,0.0,0.0,54,0.00,,---,0.16,VWS V13.01,2013-09-19 18:58:00,
2013-09-19 15:03:00,87.6,68.9,29.86,NE,45,0.0,0.0,54,0.00,,---,0.16,VWS V13.01,2013-09-19 19:03:00,
2013-09-19 15:08:00,87.4,69.3,29.86,NE,45,0.0,0.0,55,0.00,,---,0.16,VWS V13.01,2013-09-19 19:08:00,
2013-09-19 15:13:00,87.1,69.5,29.86,ESE,112,0.0,0.0,56,0.00,,---,0.16,VWS V13.01,2013-09-19 19:13:00,
2013-09-19 15:18:00,86.7,69.7,29.86,East,90,0.0,0.0,57,0.00,,---,0.16,VWS V13.01,2013-09-19 19:18:00,
2013-09-19 15:23:00,86.7,70.2,29.86,ENE,68,0.0,0.0,58,0.00,,---,0.16,VWS V13.01,2013-09-19 19:23:00,
2013-09-19 15:28:00,86.7,70.2,29.86,ENE,68,0.0,0.0,58,0.00,,---,0.16,VWS V13.01,2013-09-19 19:28:00,
2013-09-19 15:33:00,86.7,69.7,29.86,NE,45,0.0,0.0,57,0.00,,---,0.16,VWS V13.01,2013-09-19 19:33:00,
2013-09-19 15:38:00,86.7,69.7,29.86,NE,45,0.0,0.0,57,0.00,,---,0.16,VWS V13.01,2013-09-19 19:38:00,
2013-09-19 15:43:00,86.5,69.5,29.86,ENE,68,0.0,0.0,57,0.00,,---,0.16,VWS V13.01,2013-09-19 19:43:00,
2013-09-19 15:48:00,86.4,69.8,29.86,ENE,68,0.0,0.0,58,0.00,,---,0.16,VWS V13.01,2013-09-19 19:48:00,
2013-09-19 15:53:00,86.4,70.3,29.86,ESE,112,0.0,0.0,59,0.00,,---,0.16,VWS V13.01,2013-09-19 19:53:00,
2013-09-19 15:58:00,86.2,70.2,29.86,ENE,68,0.0,0.0,59,0.00,,---,0.16,VWS V13.01,2013-09-19 19:58:00,
2013-09-19 16:03:00,86.2,70.2,29.86,ENE,68,0.0,0.0,59,0.00,,---,0.16,VWS V13.01,2013-09-19 20:03:00,
2013-09-19 16:08:00,86.2,70.2,29.86,ENE,68,0.0,0.0,59,0.00,,---,0.16,VWS V13.01,2013-09-19 20:08:00,
2013-09-19 16:13:00,86.2,70.2,29.86,ENE,68,0.0,0.0,59,0.00,,---,0.16,VWS V13.01,2013-09-19 20:13:00,
2013-09-19 16:18:00,85.8,70.3,29.86,ENE,68,0.0,0.0,60,0.00,,---,0.16,VWS V13.01,2013-09-19 20:18:00,
2013-09-19 16:23:00,85.6,69.7,29.86,East,90,0.0,0.0,59,0.00,,---,0.16,VWS V13.01,2013-09-19 20:23:00,
2013-09-19 16:28:00,85.5,69.5,29.86,ENE,68,0.0,0.0,59,0.00,,---,0.16,VWS V13.01,2013-09-19 20:28:00,
2013-09-19 16:34:00,85.5,69.5,29.86,ENE,68,0.0,0.0,59,0.00,,---,0.16,VWS V13.01,2013-09-19 20:34:00,
2013-09-19 16:39:00,85.1,69.2,29.86,NE,45,0.0,0.0,59,0.00,,---,0.16,VWS V13.01,2013-09-19 20:39:00,
2013-09-19 16:44:00,85.1,69.2,29.86,ESE,112,0.0,0.0,59,0.00,,---,0.16,VWS V13.01,2013-09-19 20:44:00,
2013-09-19 16:49:00,84.7,69.8,29.86,East,90,0.0,0.0,61,0.00,,---,0.16,VWS V13.01,2013-09-19 20:49:00,
2013-09-19 16:54:00,84.7,69.8,29.86,East,90,0.0,0.0,61,0.00,,---,0.16,VWS V13.01,2013-09-19 20:54:00,
2013-09-19 16:59:00,84.9,70.0,29.86,ESE,112,0.0,0.0,61,0.00,,---,0.16,VWS V13.01,2013-09-19 20:59:00,
2013-09-19 17:04:00,84.9,70.0,29.86,East,90,0.0,0.0,61,0.00,,---,0.16,VWS V13.01,2013-09-19 21:04:00,
2013-09-19 17:09:00,84.7,69.8,29.86,East,90,0.0,0.0,61,0.00,,---,0.16,VWS V13.01,2013-09-19 21:09:00,
2013-09-19 17:14:00,84.6,70.1,29.86,ENE,68,0.0,0.0,62,0.00,,---,0.16,VWS V13.01,2013-09-19 21:14:00,
2013-09-19 17:19:00,84.7,70.3,29.85,East,90,0.0,0.0,62,0.00,,---,0.16,VWS V13.01,2013-09-19 21:19:00,
2013-09-19 17:24:00,84.6,69.6,29.86,East,90,0.0,0.0,61,0.00,,---,0.16,VWS V13.01,2013-09-19 21:24:00,
2013-09-19 17:29:00,84.6,69.6,29.86,NE,45,0.0,0.0,61,0.00,,---,0.16,VWS V13.01,2013-09-19 21:29:00,
2013-09-19 17:34:00,84.6,69.6,29.86,ENE,68,0.0,0.0,61,0.00,,---,0.16,VWS V13.01,2013-09-19 21:34:00,
2013-09-19 17:39:00,84.7,70.3,29.86,East,90,0.0,0.0,62,0.00,,---,0.16,VWS V13.01,2013-09-19 21:39:00,
2013-09-19 17:43:00,84.6,70.6,29.86,ENE,68,0.0,0.0,63,0.00,,---,0.16,VWS V13.01,2013-09-19 21:43:00,
2013-09-19 17:48:00,84.6,70.6,29.86,ENE,68,0.0,0.0,63,0.00,,---,0.16,VWS V13.01,2013-09-19 21:48:00,
2013-09-19 17:53:00,84.4,69.9,29.87,East,90,0.0,0.0,62,0.00,,---,0.16,VWS V13.01,2013-09-19 21:53:00,
2013-09-19 17:58:00,84.6,70.1,29.87,NE,45,0.0,0.0,62,0.00,,---,0.16,VWS V13.01,2013-09-19 21:58:00,
2013-09-19 18:03:00,84.4,69.5,29.88,ENE,68,0.0,0.0,61,0.00,,---,0.16,VWS V13.01,2013-09-19 22:03:00,
2013-09-19 18:08:00,84.4,69.0,29.88,ENE,68,0.0,0.0,60,0.00,,---,0.16,VWS V13.01,2013-09-19 22:08:00,
2013-09-19 18:13:00,84.6,68.7,29.87,ENE,68,0.0,0.0,59,0.00,,---,0.16,VWS V13.01,2013-09-19 22:13:00,
2013-09-19 18:18:00,84.6,69.2,29.87,East,90,0.0,0.0,60,0.00,,---,0.16,VWS V13.01,2013-09-19 22:18:00,
2013-09-19 18:23:00,84.6,69.2,29.87,NE,45,0.0,0.0,60,0.00,,---,0.16,VWS V13.01,2013-09-19 22:23:00,
2013-09-19 18:28:00,84.4,69.5,29.87,ESE,112,0.0,0.0,61,0.00,,---,0.16,VWS V13.01,2013-09-19 22:28:00,
2013-09-19 18:33:00,84.0,69.6,29.87,East,90,0.0,0.0,62,0.00,,---,0.16,VWS V13.01,2013-09-19 22:33:00,
2013-09-19 18:38:00,83.7,69.7,29.87,East,90,0.0,0.0,63,0.00,,---,0.16,VWS V13.01,2013-09-19 22:38:00,
2013-09-19 18:43:00,83.3,69.9,29.88,ESE,112,0.0,0.0,64,0.00,,---,0.16,VWS V13.01,2013-09-19 22:43:00,
2013-09-19 18:48:00,83.1,70.1,29.88,ENE,68,0.0,0.0,65,0.00,,---,0.16,VWS V13.01,2013-09-19 22:48:00,
2013-09-19 18:53:00,82.6,70.1,29.88,ENE,68,0.0,0.0,66,0.00,,---,0.16,VWS V13.01,2013-09-19 22:53:00,
2013-09-19 18:58:00,82.2,70.2,29.88,ESE,112,0.0,0.0,67,0.00,,---,0.16,VWS V13.01,2013-09-19 22:58:00,
2013-09-19 19:03:00,81.9,69.8,29.88,ESE,112,0.0,0.0,67,0.00,,---,0.16,VWS V13.01,2013-09-19 23:03:00,
2013-09-19 19:09:00,81.5,69.5,29.88,ESE,112,0.0,0.0,67,0.00,,---,0.16,VWS V13.01,2013-09-19 23:09:00,
2013-09-19 19:14:00,81.5,69.9,29.88,SE,135,0.0,0.0,68,0.00,,---,0.16,VWS V13.01,2013-09-19 23:14:00,
2013-09-19 19:19:00,81.3,70.2,29.88,NE,45,0.0,0.0,69,0.00,,---,0.16,VWS V13.01,2013-09-19 23:19:00,
2013-09-19 19:24:00,81.3,70.2,29.88,ESE,112,0.0,0.0,69,0.00,,---,0.16,VWS V13.01,2013-09-19 23:24:00,
2013-09-19 19:29:00,81.3,70.2,29.88,ENE,68,0.0,0.0,69,0.00,,---,0.16,VWS V13.01,2013-09-19 23:29:00,
2013-09-19 19:34:00,81.3,70.6,29.88,ESE,112,0.0,0.0,70,0.00,,---,0.16,VWS V13.01,2013-09-19 23:34:00,
2013-09-19 19:39:00,81.3,70.6,29.88,ENE,68,0.0,0.0,70,0.00,,---,0.16,VWS V13.01,2013-09-19 23:39:00,
2013-09-19 19:44:00,81.3,70.6,29.88,ENE,68,0.0,0.0,70,0.00,,---,0.16,VWS V13.01,2013-09-19 23:44:00,
2013-09-19 19:49:00,81.1,70.4,29.88,ENE,68,0.0,0.0,70,0.00,,---,0.16,VWS V13.01,2013-09-19 23:49:00,
2013-09-19 19:54:00,81.1,70.4,29.88,ENE,68,0.0,0.0,70,0.00,,---,0.16,VWS V13.01,2013-09-19 23:54:00,
2013-09-19 19:59:00,81.1,70.4,29.88,ENE,68,0.0,0.0,70,0.00,,---,0.16,VWS V13.01,2013-09-19 23:59:00,
2013-09-19 20:04:00,81.3,71.0,29.89,ESE,112,0.0,0.0,71,0.00,,---,0.16,VWS V13.01,2013-09-20 00:04:00,
2013-09-19 20:09:00,81.3,71.0,29.89,ENE,68,0.0,0.0,71,0.00,,---,0.16,VWS V13.01,2013-09-20 00:09:00,
2013-09-19 20:14:00,81.3,71.0,29.89,ENE,68,0.0,0.0,71,0.00,,---,0.16,VWS V13.01,2013-09-20 00:14:00,
2013-09-19 20:19:00,81.3,70.6,29.89,ENE,68,0.0,0.0,70,0.00,,---,0.16,VWS V13.01,2013-09-20 00:19:00,
2013-09-19 20:23:00,81.3,70.6,29.89,ENE,68,0.0,0.0,70,0.00,,---,0.16,VWS V13.01,2013-09-20 00:23:00,
2013-09-19 20:28:00,81.1,70.4,29.89,NE,45,0.0,0.0,70,0.00,,---,0.16,VWS V13.01,2013-09-20 00:28:00,
2013-09-19 20:33:00,81.0,70.3,29.89,NE,45,0.0,0.0,70,0.00,,---,0.16,VWS V13.01,2013-09-20 00:33:00,
2013-09-19 20:38:00,81.1,70.4,29.89,NE,45,0.0,0.0,70,0.00,,---,0.16,VWS V13.01,2013-09-20 00:38:00,
2013-09-19 20:43:00,81.0,70.7,29.90,NE,45,0.0,0.0,71,0.00,,---,0.16,VWS V13.01,2013-09-20 00:43:00,
2013-09-19 20:48:00,81.0,70.7,29.89,NE,45,0.0,0.0,71,0.00,,---,0.16,VWS V13.01,2013-09-20 00:48:00,
2013-09-19 20:53:00,81.0,71.1,29.89,NE,45,0.0,0.0,72,0.00,,---,0.16,VWS V13.01,2013-09-20 00:53:00,
2013-09-19 20:58:00,81.0,71.1,29.90,NE,45,0.0,0.0,72,0.00,,---,0.16,VWS V13.01,2013-09-20 00:58:00,
2013-09-19 21:03:00,80.8,71.3,29.90,NE,45,0.0,0.0,73,0.00,,---,0.16,VWS V13.01,2013-09-20 01:03:00,
2013-09-19 21:08:00,80.8,71.3,29.90,NE,45,0.0,0.0,73,0.00,,---,0.16,VWS V13.01,2013-09-20 01:08:00,
2013-09-19 21:13:00,80.8,71.3,29.90,NE,45,0.0,0.0,73,0.00,,---,0.16,VWS V13.01,2013-09-20 01:13:00,
2013-09-19 21:18:00,80.6,71.2,29.90,NE,45,0.0,0.0,73,0.00,,---,0.16,VWS V13.01,2013-09-20 01:18:00,
2013-09-19 21:23:00,80.4,71.4,29.91,NE,45,0.0,0.0,74,0.00,,---,0.16,VWS V13.01,2013-09-20 01:23:00,
2013-09-19 21:28:00,80.2,71.2,29.90,NE,45,0.0,0.0,74,0.00,,---,0.16,VWS V13.01,2013-09-20 01:28:00,
2013-09-19 21:33:00,80.2,71.2,29.91,NE,45,0.0,0.0,74,0.00,,---,0.16,VWS V13.01,2013-09-20 01:33:00,
2013-09-19 21:38:00,80.1,71.4,29.91,NE,45,0.0,0.0,75,0.00,,---,0.16,VWS V13.01,2013-09-20 01:38:00,
2013-09-19 21:43:00,80.1,71.4,29.91,NE,45,0.0,0.0,75,0.00,,---,0.16,VWS V13.01,2013-09-20 01:43:00,
2013-09-19 21:48:00,80.1,71.4,29.91,NE,45,0.0,0.0,75,0.00,,---,0.16,VWS V13.01,2013-09-20 01:48:00,
2013-09-19 21:53:00,79.9,71.2,29.91,NE,45,0.0,0.0,75,0.00,,---,0.16,VWS V13.01,2013-09-20 01:53:00,
2013-09-19 21:58:00,80.1,71.4,29.91,NE,45,0.0,0.0,75,0.00,,---,0.16,VWS V13.01,2013-09-20 01:58:00,
2013-09-19 22:03:00,80.1,71.8,29.91,NE,45,0.0,0.0,76,0.00,,---,0.00,VWS V13.01,2013-09-20 02:03:00,
2013-09-19 22:08:00,79.9,71.6,29.91,East,90,0.0,0.0,76,0.00,,---,0.00,VWS V13.01,2013-09-20 02:08:00,
2013-09-19 22:13:00,80.1,71.4,29.91,ENE,68,0.0,0.0,75,0.00,,---,0.00,VWS V13.01,2013-09-20 02:13:00,
2013-09-19 22:18:00,80.1,71.0,29.91,ENE,68,0.0,0.0,74,0.00,,---,0.00,VWS V13.01,2013-09-20 02:18:00,
2013-09-19 22:23:00,80.1,70.2,29.91,East,90,0.0,0.0,72,0.00,,---,0.00,VWS V13.01,2013-09-20 02:23:00,
2013-09-19 22:28:00,80.2,70.0,29.91,ENE,68,0.0,0.0,71,0.00,,---,0.00,VWS V13.01,2013-09-20 02:28:00,
2013-09-19 22:33:00,80.4,69.8,29.92,ENE,68,0.0,0.0,70,0.00,,---,0.00,VWS V13.01,2013-09-20 02:33:00,
2013-09-19 22:38:00,80.8,69.7,29.92,ENE,68,0.0,0.0,69,0.00,,---,0.00,VWS V13.01,2013-09-20 02:38:00,
2013-09-19 22:43:00,80.6,69.1,29.92,ENE,68,0.0,0.0,68,0.00,,---,0.00,VWS V13.01,2013-09-20 02:43:00,
2013-09-19 22:48:00,80.6,68.6,29.92,NE,45,0.0,0.0,67,0.00,,---,0.00,VWS V13.01,2013-09-20 02:48:00,
2013-09-19 22:53:00,80.8,68.8,29.91,NE,45,0.0,0.0,67,0.00,,---,0.00,VWS V13.01,2013-09-20 02:53:00,
2013-09-19 22:58:00,80.8,68.4,29.91,NE,45,0.0,0.0,66,0.00,,---,0.00,VWS V13.01,2013-09-20 02:58:00,
2013-09-19 23:03:00,80.8,67.9,29.91,NE,45,0.0,0.0,65,0.00,,---,0.00,VWS V13.01,2013-09-20 03:03:00,
2013-09-19 23:08:00,80.8,67.9,29.91,NE,45,0.0,0.0,65,0.00,,---,0.00,VWS V13.01,2013-09-20 03:08:00,
2013-09-19 23:13:00,81.0,67.7,29.91,NE,45,0.0,0.0,64,0.00,,---,0.00,VWS V13.01,2013-09-20 03:13:00,
2013-09-19 23:18:00,81.0,67.7,29.91,ENE,68,0.0,0.0,64,0.00,,---,0.00,VWS V13.01,2013-09-20 03:18:00,
2013-09-19 23:23:00,81.0,67.7,29.91,ENE,68,0.0,0.0,64,0.00,,---,0.00,VWS V13.01,2013-09-20 03:23:00,
2013-09-19 23:28:00,81.0,67.2,29.91,ENE,68,0.0,0.0,63,0.00,,---,0.00,VWS V13.01,2013-09-20 03:28:00,
2013-09-19 23:33:00,80.8,67.0,29.91,East,90,0.0,0.0,63,0.00,,---,0.00,VWS V13.01,2013-09-20 03:33:00,
2013-09-19 23:38:00,80.8,67.0,29.90,East,90,0.0,0.0,63,0.00,,---,0.00,VWS V13.01,2013-09-20 03:38:00,
2013-09-19 23:43:00,80.8,66.6,29.90,ENE,68,0.0,0.0,62,0.00,,---,0.00,VWS V13.01,2013-09-20 03:43:00,
2013-09-19 23:48:00,80.8,66.6,29.90,ENE,68,0.0,0.0,62,0.00,,---,0.00,VWS V13.01,2013-09-20 03:48:00,
2013-09-19 23:53:00,80.6,66.4,29.90,ENE,68,0.0,0.0,62,0.00,,---,0.00,VWS V13.01,2013-09-20 03:53:00,
2013-09-19 23:58:00,80.6,65.9,29.90,East,90,0.0,0.0,61,0.00,,---,0.00,VWS V13.01,2013-09-20 03:58:00,